I1SCL Weather Reports


time (UTC)temp
F
wind
direction
speed
knots
gust
knots
rain 1hr
in
rain 24hr
in
rain mn
in
humidity
%
barometer
mb
20260507234625 57 90 0.0 0.0 0.00 0.00 0.00 81 1011.3
20260507234122 57 113 0.0 1.7 0.00 0.00 0.00 81 1011.4
20260507233625 57 113 1.7 2.6 0.00 0.00 0.00 81 1011.4
20260507233122 57 113 1.7 3.5 0.00 0.00 0.00 81 1011.3
20260507232625 57 113 0.0 3.5 0.00 0.00 0.00 81 1011.3
20260507232125 57 113 2.6 3.5 0.00 0.00 0.00 81 1011.3
20260507231631 57 113 1.7 3.5 0.00 0.00 0.00 80 1011.5
20260507231122 57 113 2.6 3.5 0.00 0.00 0.00 80 1011.5
20260507230625 57 113 1.7 3.5 0.00 0.00 0.00 81 1011.4
20260507230122 57 113 1.7 3.5 0.00 0.00 0.00 81 1011.3
20260507225625 57 113 2.6 5.2 0.00 0.00 0.00 81 1011.5
20260507225128 57 90 1.7 5.2 0.00 0.00 0.00 81 1011.4
20260507224626 57 90 1.7 5.2 0.00 0.00 0.00 81 1011.5
20260507224122 58 90 2.6 5.2 0.00 0.00 0.00 81 1011.5
20260507223622 57 90 2.6 5.2 0.00 0.00 0.00 81 1011.5
20260507223125 57 113 2.6 3.5 0.00 0.00 0.00 81 1011.5
20260507222622 58 113 2.6 5.2 0.00 0.00 0.00 81 1011.6
20260507222122 58 113 3.5 5.2 0.00 0.00 0.00 81 1011.7
20260507221622 58 90 3.5 5.2 0.00 0.00 0.00 80 1011.5
20260507221125 58 113 2.6 5.2 0.00 0.00 0.00 80 1011.7
20260507220622 58 113 2.6 5.2 0.00 0.00 0.00 80 1011.6
20260507220125 58 68 2.6 5.2 0.00 0.00 0.00 80 1011.5
20260507215628 58 68 2.6 5.2 0.00 0.00 0.00 80 1011.4
20260507215125 58 68 2.6 5.2 0.00 0.00 0.00 79 1011.5
20260507214622 58 68 2.6 5.2 0.00 0.00 0.00 79 1011.4
20260507214122 58 68 2.6 5.2 0.00 0.00 0.00 79 1011.5
20260507213622 58 68 2.6 3.5 0.00 0.00 0.00 78 1011.4
20260507213125 58 68 2.6 3.5 0.00 0.00 0.00 78 1011.5
20260507212622 58 90 2.6 3.5 0.00 0.00 0.00 78 1011.4
20260507212125 58 68 2.6 3.5 0.00 0.00 0.00 78 1011.4
20260507211622 58 68 1.7 3.5 0.00 0.00 0.00 77 1011.3
20260507211125 58 90 1.7 3.5 0.00 0.00 0.00 77 1011.2
20260507210625 58 113 2.6 5.2 0.00 0.00 0.00 77 1011.3
20260507210122 59 90 2.6 5.2 0.00 0.00 0.00 77 1011.2
20260507205629 59 90 1.7 5.2 0.00 0.00 0.00 76 1011.3
20260507205125 59 90 2.6 5.2 0.00 0.00 0.00 75 1011.2
20260507204622 59 68 2.6 5.2 0.00 0.00 0.00 75 1011.0
20260507204122 59 90 2.6 5.2 0.00 0.00 0.00 74 1011.0
20260507203625 59 68 2.6 5.2 0.00 0.00 0.00 75 1011.1
20260507203125 58 90 0.9 5.2 0.00 0.00 0.00 76 1011.0
20260507202625 58 90 2.6 2.6 0.00 0.00 0.00 77 1011.0
20260507202122 58 68 2.6 3.5 0.00 0.00 0.00 78 1011.2
20260507201622 58 90 1.7 3.5 0.00 0.00 0.00 78 1011.0
20260507201122 58 68 2.6 2.6 0.00 0.00 0.00 78 1011.3
20260507200622 58 68 1.7 2.6 0.00 0.00 0.00 78 1011.4
20260507200125 58 68 1.7 2.6 0.00 0.00 0.00 78 1011.1
20260507195628 58 90 2.6 3.5 0.00 0.00 0.00 78 1011.3
20260507195122 58 68 0.9 2.6 0.00 0.00 0.00 78 1011.1
20260507194622 58 68 0.9 2.6 0.00 0.00 0.00 78 1011.2
20260507194125 58 68 1.7 2.6 0.00 0.00 0.00 78 1011.0
20260507193622 58 90 1.7 2.6 0.00 0.00 0.00 78 1011.2
20260507193128 58 68 0.9 1.7 0.00 0.00 0.00 77 1010.9
20260507192622 58 68 1.7 1.7 0.00 0.00 0.00 77 1011.0
20260507192125 59 113 0.0 1.7 0.00 0.00 0.00 77 1011.0
20260507191625 58 135 0.0 1.7 0.00 0.00 0.00 77 1010.9
20260507191125 58 135 0.0 1.7 0.00 0.00 0.00 77 1010.9
20260507190622 58 135 0.0 1.7 0.00 0.00 0.00 77 1010.8
20260507190129 58 135 0.0 0.9 0.00 0.00 0.00 77 1010.7
20260507185622 58 135 0.0 0.9 0.00 0.00 0.00 77 1010.7
20260507185125 59 135 0.0 1.7 0.00 0.00 0.00 77 1010.6
20260507184625 58 135 0.0 2.6 0.00 0.00 0.00 77 1010.5
20260507184125 58 135 1.7 2.6 0.00 0.00 0.00 76 1010.7
20260507183625 59 158 0.9 1.7 0.00 0.00 0.00 76 1010.6
20260507183122 59 158 0.9 2.6 0.00 0.00 0.00 76 1010.5
20260507182625 59 158 1.7 2.6 0.00 0.00 0.00 76 1010.7
20260507182122 59 203 0.0 1.7 0.00 0.00 0.00 76 1010.3
20260507181628 59 248 0.0 0.9 0.00 0.00 0.00 76 1010.7
20260507181122 59 248 0.0 2.6 0.00 0.00 0.00 76 1010.7
20260507180625 60 270 0.9 3.5 0.00 0.00 0.00 75 1010.3
20260507180125 60 315 1.7 2.6 0.00 0.00 0.00 74 1010.6
20260507175625 60 293 1.7 2.6 0.00 0.00 0.00 72 1010.2
20260507175125 61 203 0.9 1.7 0.00 0.00 0.00 73 1010.2
20260507174622 61 203 0.9 0.9 0.00 0.00 0.00 72 1010.2
20260507174125 61 203 0.0 1.7 0.00 0.00 0.00 71 1010.3
20260507173622 62 225 0.0 0.9 0.00 0.00 0.00 70 1010.2
20260507173122 62 293 0.0 1.7 0.00 0.00 0.00 70 1010.5
20260507172622 62 248 0.0 2.6 0.00 0.00 0.00 69 1010.3
20260507172131 62 293 0.9 1.7 0.00 0.00 0.00 69 1010.3
20260507171625 62 270 0.0 2.6 0.00 0.00 0.00 71 1010.1
20260507171122 61 315 1.7 3.5 0.00 0.00 0.00 72 1010.6
20260507170622 61 315 2.6 3.5 0.00 0.00 0.00 71 1010.3
20260507170122 61 270 2.6 7.8 0.00 0.00 0.00 71 1010.3
20260507165631 61 270 3.5 7.0 0.00 0.00 0.00 68 1010.5
20260507165128 62 270 4.3 7.8 0.00 0.00 0.00 68 1010.6
20260507164622 62 293 5.2 7.8 0.00 0.00 0.00 66 1010.6
20260507164128 63 270 5.2 7.0 0.00 0.00 0.00 64 1010.6
20260507163625 63 293 3.5 7.0 0.00 0.00 0.00 63 1010.6
20260507163122 63 293 4.3 7.0 0.00 0.00 0.00 63 1010.5
20260507162622 62 248 4.3 8.7 0.00 0.00 0.00 64 1010.5
20260507162122 62 293 3.5 7.8 0.00 0.00 0.00 65 1010.3
20260507161622 63 293 3.5 8.7 0.00 0.00 0.00 68 1010.5
20260507161122 63 248 7.0 8.7 0.00 0.00 0.00 67 1010.3
20260507160622 63 293 4.3 7.8 0.00 0.00 0.00 66 1010.3
20260507160125 62 270 3.5 7.0 0.00 0.00 0.00 67 1010.7
20260507155625 62 293 3.5 5.2 0.00 0.00 0.00 67 1010.2
20260507155122 62 315 3.5 7.0 0.00 0.00 0.00 67 1010.2
20260507154622 63 248 4.3 7.0 0.00 0.00 0.00 66 1010.2
20260507154122 63 270 6.1 9.6 0.00 0.00 0.00 63 1010.1
20260507153622 62 293 6.1 10.4 0.00 0.00 0.00 66 1010.3
20260507153125 63 270 4.3 8.7 0.00 0.00 0.00 65 1010.2
20260507152622 62 270 4.3 7.8 0.00 0.00 0.00 65 1010.3
20260507152122 63 270 6.1 9.6 0.00 0.00 0.00 67 1010.2
20260507151625 63 270 7.0 8.7 0.00 0.00 0.00 67 1010.5
20260507151122 64 270 5.2 7.8 0.00 0.00 0.00 64 1010.3
20260507150625 63 293 4.3 8.7 0.00 0.00 0.00 66 1010.1
20260507150125 62 315 4.3 7.8 0.00 0.00 0.00 69 1010.1
20260507145628 62 293 5.2 8.7 0.00 0.00 0.00 69 1010.3
20260507145122 62 293 7.0 8.7 0.00 0.00 0.00 70 1010.1
20260507144628 63 270 5.2 7.0 0.00 0.00 0.00 69 1010.2
20260507144122 62 293 5.2 9.6 0.00 0.00 0.00 68 1010.5
20260507143622 62 270 7.0 9.6 0.00 0.00 0.00 69 1010.6
20260507143128 63 270 7.8 10.4 0.00 0.00 0.00 72 1010.3
20260507142622 63 270 7.0 9.6 0.00 0.00 0.00 70 1010.3
20260507142125 64 270 5.2 8.7 0.00 0.00 0.00 70 1010.5
20260507141622 63 270 6.1 9.6 0.00 0.00 0.00 70 1010.5
20260507141125 63 248 5.2 7.8 0.00 0.00 0.00 69 1010.6
20260507140622 63 248 4.3 7.8 0.00 0.00 0.00 67 1010.7
20260507140125 65 225 2.6 5.2 0.00 0.00 0.00 63 1010.8
20260507135625 66 225 1.7 3.5 0.00 0.00 0.00 64 1010.7
20260507135122 65 158 0.0 5.2 0.00 0.00 0.00 63 1010.7
20260507134622 65 225 2.6 5.2 0.00 0.00 0.00 61 1010.8
20260507134122 64 315 2.6 5.2 0.00 0.00 0.00 62 1010.9
20260507133628 65 203 0.9 3.5 0.00 0.00 0.00 61 1011.0
20260507133128 63 113 0.9 5.2 0.00 0.00 0.00 59 1011.0
20260507132625 64 158 2.6 5.2 0.00 0.00 0.00 61 1010.9
20260507132128 64 270 2.6 5.2 0.00 0.00 0.00 63 1011.3
20260507131622 64 225 2.6 5.2 0.00 0.00 0.00 62 1011.4
20260507131122 65 90 0.9 3.5 0.00 0.00 0.00 61 1011.2
20260507130625 63 135 0.9 7.0 0.00 0.00 0.00 63 1011.3
20260507130128 63 135 2.6 7.8 0.00 0.00 0.00 63 1011.2
20260507125626 64 158 1.7 5.2 0.00 0.00 0.00 64 1011.3
20260507125131 63 135 2.6 7.0 0.00 0.00 0.00 65 1011.2
20260507124625 64 158 4.3 7.8 0.00 0.00 0.00 66 1011.1
20260507124125 62 135 5.2 7.8 0.00 0.00 0.00 65 1011.1
20260507123628 62 158 5.2 8.7 0.00 0.00 0.00 66 1010.9
20260507123122 62 135 6.1 8.7 0.00 0.00 0.00 67 1010.9
20260507122622 62 113 5.2 7.8 0.00 0.00 0.00 69 1011.2
20260507122128 62 90 4.3 9.6 0.00 0.00 0.00 70 1010.8
20260507121622 62 158 7.8 9.6 0.00 0.00 0.00 70 1010.8
20260507121125 63 135 3.5 8.7 0.00 0.00 0.00 68 1010.7
20260507120622 64 158 5.2 8.7 0.00 0.00 0.00 71 1010.7
20260507120122 63 113 5.2 7.8 0.00 0.00 0.00 68 1010.6
20260507115622 64 68 2.6 10.4 0.00 0.00 0.00 70 1010.9
20260507115122 63 135 2.6 8.7 0.00 0.00 0.00 68 1010.6
20260507114626 63 90 4.3 11.3 0.00 0.00 0.00 73 1010.3
20260507114125 63 113 4.3 9.6 0.00 0.00 0.00 72 1010.8
20260507113625 62 135 4.3 7.8 0.00 0.00 0.00 72 1010.6
20260507113125 63 113 2.6 7.0 0.00 0.00 0.00 72 1010.7
20260507112622 64 158 1.7 8.7 0.00 0.00 0.00 73 1010.7
20260507112122 62 135 2.6 8.7 0.00 0.00 0.00 75 1010.6
20260507111622 62 158 3.5 9.6 0.00 0.00 0.00 74 1010.9
20260507111125 62 135 5.2 9.6 0.00 0.00 0.00 74 1011.2
20260507110622 63 135 2.6 8.7 0.00 0.00 0.00 74 1011.1
20260507110125 64 248 3.5 8.7 0.00 0.00 0.00 74 1011.0
20260507105623 63 135 4.3 7.8 0.00 0.00 0.00 70 1010.9
20260507105122 62 113 5.2 8.7 0.00 0.00 0.00 72 1010.8
20260507104622 63 180 0.9 8.7 0.00 0.00 0.00 75 1010.9
20260507104122 62 158 2.6 7.8 0.00 0.00 0.00 74 1011.0
20260507103622 63 135 2.6 8.7 0.00 0.00 0.00 74 1011.1
20260507103125 62 135 5.2 8.7 0.00 0.00 0.00 74 1010.9
20260507102622 62 113 3.5 9.6 0.00 0.00 0.00 75 1010.6
20260507102125 62 135 5.2 8.7 0.00 0.00 0.00 74 1010.9
20260507101628 62 113 5.2 8.7 0.00 0.00 0.00 73 1010.9
20260507101122 62 90 2.6 10.4 0.00 0.00 0.00 75 1011.0
20260507100622 62 135 5.2 8.7 0.00 0.00 0.00 75 1011.1
20260507100122 62 45 2.6 9.6 0.00 0.00 0.00 76 1010.9
20260507095622 62 135 6.1 9.6 0.00 0.00 0.00 74 1010.9
20260507095125 61 90 6.1 8.7 0.00 0.00 0.00 75 1011.0
20260507094625 62 180 5.2 9.6 0.00 0.00 0.00 77 1011.1
20260507094122 61 158 5.2 11.3 0.00 0.00 0.00 77 1011.0
20260507093628 61 90 5.2 11.3 0.00 0.00 0.00 77 1011.0
20260507093122 62 113 2.6 7.8 0.00 0.00 0.00 76 1010.7
20260507092625 62 248 4.3 5.2 0.00 0.00 0.00 78 1010.8
20260507092122 61 90 2.6 8.7 0.00 0.00 0.00 78 1010.9
20260507091622 61 135 7.0 8.7 0.00 0.00 0.00 77 1010.7
20260507091122 62 158 6.1 9.6 0.00 0.00 0.00 76 1011.0
20260507090625 62 158 6.1 9.6 0.00 0.00 0.00 75 1010.8
20260507090125 61 180 3.5 9.6 0.00 0.00 0.00 75 1010.7
20260507085622 62 135 1.7 7.0 0.00 0.00 0.00 76 1010.7
20260507085122 61 135 4.3 7.8 0.00 0.00 0.00 76 1010.7
20260507084625 61 158 4.3 7.8 0.00 0.00 0.00 77 1010.6
20260507084125 61 90 3.5 7.8 0.00 0.00 0.00 76 1010.6
20260507083622 60 113 5.2 7.8 0.00 0.00 0.00 74 1010.7
20260507083122 62 113 1.7 9.6 0.00 0.00 0.00 75 1010.5
20260507082628 62 180 2.6 7.0 0.00 0.00 0.00 73 1010.2
20260507082122 62 135 3.5 7.8 0.00 0.00 0.00 72 1010.2
20260507081625 62 203 1.7 8.7 0.00 0.00 0.00 73 1010.6
20260507081122 62 90 5.2 7.0 0.00 0.00 0.00 71 1010.1
20260507080622 61 135 3.5 7.8 0.00 0.00 0.00 72 1010.3
20260507080125 61 113 2.6 7.0 0.00 0.00 0.00 71 1010.2
20260507075622 62 113 2.6 7.0 0.00 0.00 0.00 70 1010.2
20260507075128 62 113 0.0 5.2 0.00 0.00 0.00 71 1010.5
20260507074625 62 113 2.6 5.2 0.00 0.00 0.00 70 1010.5
20260507074128 62 68 2.6 5.2 0.00 0.00 0.00 69 1010.5
20260507073622 62 90 1.7 3.5 0.00 0.00 0.00 69 1010.3
20260507073125 61 113 2.6 3.5 0.00 0.00 0.00 68 1010.3
20260507072622 61 113 2.6 3.5 0.00 0.00 0.00 68 1010.3
20260507072122 61 113 2.6 3.5 0.00 0.00 0.00 68 1010.2
20260507071622 61 135 0.9 3.5 0.00 0.00 0.00 68 1010.2
20260507071122 61 135 2.6 5.2 0.00 0.00 0.00 68 1009.9
20260507070628 61 90 2.6 5.2 0.00 0.00 0.00 71 1010.0
20260507070122 61 135 2.6 3.5 0.00 0.00 0.00 70 1010.0
20260507065625 60 158 0.9 5.2 0.00 0.00 0.00 71 1010.0
20260507065122 62 135 1.7 3.5 0.00 0.00 0.00 71 1009.8
20260507064625 60 113 0.0 5.2 0.00 0.00 0.00 71 1010.0
20260507064122 60 113 2.6 5.2 0.00 0.00 0.00 73 1009.9
20260507063625 60 113 2.6 3.5 0.00 0.00 0.00 75 1009.9
20260507063122 58 90 0.0 0.9 0.00 0.00 0.00 77 1009.9
20260507062622 58 23 0.0 0.9 0.00 0.00 0.00 78 1009.5
20260507062122 58 23 0.0 0.9 0.00 0.00 0.00 77 1009.7
20260507061622 58 315 0.0 1.7 0.00 0.00 0.00 77 1009.6
20260507061125 59 45 0.0 0.9 0.00 0.00 0.00 76 1009.6
20260507060623 59 113 0.0 0.0 0.00 0.00 0.00 75 1009.5
20260507060125 59 113 0.0 0.9 0.00 0.00 0.00 75 1009.5
20260507055628 59 68 0.0 1.7 0.00 0.00 0.00 76 1009.4
20260507055122 59 90 0.0 2.6 0.00 0.00 0.00 76 1009.5
20260507054622 59 90 1.7 2.6 0.00 0.00 0.00 76 1009.2
20260507054122 59 68 1.7 3.5 0.00 0.00 0.00 76 1009.5
20260507053622 59 113 1.7 3.5 0.00 0.00 0.00 75 1009.0
20260507053122 59 90 1.7 5.2 0.00 0.00 0.00 75 1009.2
20260507052625 59 90 3.5 5.2 0.00 0.00 0.00 74 1009.0
20260507052128 59 68 1.7 5.2 0.00 0.00 0.00 74 1008.8
20260507051625 58 90 1.7 3.5 0.00 0.00 0.00 75 1008.9
20260507051122 58 113 2.6 5.2 0.00 0.00 0.00 75 1008.9
20260507050628 58 90 3.5 7.0 0.00 0.00 0.00 75 1008.6
20260507050122 57 90 3.5 7.0 0.00 0.00 0.00 76 1008.5
20260507045625 57 90 4.3 7.8 0.00 0.00 0.00 76 1008.4
20260507045122 57 113 3.5 7.8 0.00 0.00 0.00 76 1008.5
20260507044622 57 90 3.5 7.0 0.00 0.00 0.00 77 1008.5
20260507044128 56 113 2.6 5.2 0.00 0.00 0.00 78 1008.3
20260507043622 56 113 4.3 7.0 0.00 0.00 0.00 78 1008.5
20260507043125 56 113 2.6 7.8 0.00 0.00 0.00 79 1008.2
20260507042622 56 90 4.3 7.0 0.00 0.00 0.00 79 1008.2
20260507042122 56 135 3.5 7.0 0.00 0.00 0.00 80 1008.2
20260507041625 56 113 2.6 7.0 0.00 0.00 0.00 80 1008.5
20260507041125 56 68 5.2 7.8 0.00 0.00 0.00 80 1008.2
20260507040622 56 113 3.5 5.2 0.00 0.00 0.00 80 1008.2
20260507040122 56 90 3.5 5.2 0.00 0.00 0.00 80 1008.2
20260507035625 56 113 2.6 7.0 0.00 0.00 0.00 80 1008.3
20260507035122 56 113 5.2 7.0 0.00 0.00 0.00 80 1008.1
20260507034622 56 90 4.3 7.0 0.00 0.00 0.00 79 1008.2
20260507034125 56 90 3.5 7.0 0.00 0.01 0.00 78 1008.2
20260507033625 56 90 2.6 7.0 0.00 0.03 0.00 78 1008.2
20260507033122 56 90 3.5 5.2 0.00 0.05 0.00 78 1008.1
20260507032625 56 90 3.5 5.2 0.00 0.10 0.00 78 1008.0
20260507032125 56 113 2.6 5.2 0.00 0.11 0.00 78 1008.2
20260507031625 56 113 2.6 5.2 0.00 0.12 0.00 78 1008.0
20260507031128 56 113 2.6 5.2 0.00 0.12 0.00 80 1008.0
20260507030622 56 113 1.7 3.5 0.00 0.12 0.00 81 1008.2
20260507030122 56 113 2.6 3.5 0.00 0.12 0.00 81 1008.1
20260507025622 56 135 1.7 2.6 0.00 0.12 0.00 80 1008.2
20260507025122 57 113 2.6 3.5 0.00 0.12 0.00 80 1007.9
20260507024622 56 113 2.6 3.5 0.00 0.12 0.00 80 1008.1
20260507024131 56 113 2.6 3.5 0.00 0.12 0.00 81 1008.0
20260507023625 56 113 2.6 3.5 0.00 0.12 0.00 82 1008.0
20260507023122 57 113 2.6 3.5 0.00 0.12 0.00 82 1007.9
20260507022631 57 113 0.9 3.5 0.00 0.12 0.00 83 1007.8
20260507022122 57 113 2.6 3.5 0.00 0.12 0.00 83 1008.0
20260507021628 57 90 2.6 3.5 0.00 0.12 0.00 83 1007.7
20260507021126 57 113 0.9 2.6 0.00 0.12 0.00 82 1007.9
20260507020623 57 90 0.9 2.6 0.00 0.12 0.00 82 1007.9
20260507020125 57 113 1.7 2.6 0.00 0.12 0.00 82 1007.8
20260507015622 57 113 0.0 2.6 0.00 0.12 0.00 82 1007.7
20260507015125 57 113 0.9 1.7 0.00 0.12 0.00 81 1007.7
20260507014622 57 113 1.7 1.7 0.00 0.12 0.00 79 1007.6
20260507014122 58 135 0.0 1.7 0.00 0.12 0.00 78 1007.7
20260507013622 58 203 0.9 2.6 0.00 0.12 0.00 79 1007.7
20260507013122 57 248 0.0 0.9 0.00 0.12 0.00 79 1007.5
20260507012622 57 315 0.0 1.7 0.00 0.12 0.00 79 1007.5
20260507012131 57 338 0.9 1.7 0.00 0.12 0.00 79 1007.7
20260507011625 57 0 0.0 0.9 0.00 0.12 0.00 79 1007.5
20260507010625 57 338 0.9 1.7 0.00 0.12 0.00 79 1007.6
20260507010128 57 0 0.0 1.7 0.00 0.12 0.00 79 1007.5
20260507005622 58 23 0.9 1.7 0.00 0.12 0.00 79 1007.6
20260507005128 57 90 0.9 1.7 0.00 0.12 0.00 79 1007.5
20260507004622 57 90 0.9 1.7 0.00 0.12 0.00 79 1007.7
20260507004125 57 90 0.0 0.0 0.00 0.12 0.00 79 1007.6
20260507003625 57 90 0.0 0.0 0.00 0.12 0.00 78 1007.5
20260507003122 58 90 0.0 0.0 0.00 0.12 0.00 78 1007.5
20260507002625 58 90 0.0 0.0 0.00 0.12 0.00 78 1007.7
20260507002122 58 113 0.0 0.0 0.00 0.12 0.00 78 1007.7
20260507001625 57 113 0.0 0.0 0.00 0.12 0.00 78 1007.6
20260507001125 58 113 0.0 0.0 0.00 0.12 0.00 78 1007.5
20260507000631 58 90 0.0 0.0 0.00 0.12 0.00 78 1007.6
20260507000125 58 90 0.0 0.0 0.00 0.12 0.00 78 1007.6
20260506235625 58 90 0.0 0.0 0.00 0.14 0.00 79 1007.7
20260506235126 58 90 0.0 0.0 0.00 0.14 0.00 79 1007.8